Weather History for Burlington, VT

Change the Weather History Date:

Monday, November 28, 2011

  Actual Average Record
Temperature  
Mean Temperature 50 °F 34 °F  
Max Temperature 57 °F 40 °F 68 °F (1990)
Min Temperature 42 °F 27 °F 1 °F (1936)
Degree Days  
Heating Degree Days 15 32  
Month to date heating degree days 618 739  
Since 1 July heating degree days 1168 1480  
Cooling Degree Days 0 0  
Month to date cooling degree days 0 0  
Year to date cooling degree days 628 491  
Moisture  
Dew Point 44 °F    
Average Humidity 78    
Maximum Humidity 89    
Minimum Humidity 66    
Precipitation  
Precipitation T in 0.10 in 1.65 in (1959)
Month to date precipitation 1.23 2.95  
Year to date precipitation 48.49 34.26  
Snow  
Snow 0.00 in 0.30 in 9.20 in (1958)
Month to date snowfall 5.0 4.5  
Since 1 July snowfall 5.1 4.8  
Since 1 September snowfall 5.1 4.8  
Snow Depth 0.00 in    
Sea Level Pressure  
Sea Level Pressure 30.04 in    
Wind  
Wind Speed 9 mph (WNW)    
Max Wind Speed 24 mph    
Max Gust Speed 32 mph    
Visibility 10 miles    
Events Rain    
T = Trace of Precipitation, MM = Missing Value Source: NWS Daily Summary

Daily Weather History Graph

Daily Weather History Graph

Search for Another Location

Airport:

Trip Planner

Search our weather history database for the weather conditions in past years. The results will help you decide how hot, cold, wet, or windy it might be!

Date:

Astronomy

Nov. 28, 2011 Rise Set
Actual Time 7:05 AM EST 4:15 PM EST
Civil Twilight 6:32 AM EST 4:48 PM EST
Nautical Twilight 5:56 AM EST 5:24 PM EST
Astronomical Twilight 5:21 AM EST 5:59 PM EST
Moon 10:11 AM EST (11/28) 8:01 PM EST (11/28)
Length of Visible Light 10h 15m
Length of Day
9h 10m
Waxing Crescent, 15% of the Moon is Illuminated
Nov 28
Waxing Crescent
Dec 2
First Quarter
Dec 10
Full
Dec 17
Last Quarter
Dec 24
New

Hourly Weather History & Observations

Time (EST) Temp. Windchill Dew Point Humidity Pressure Visibility Wind Dir Wind Speed Gust Speed Precip Events Conditions
12:54 AM 55.9 °F - 45.0 °F 67% 29.92 in 10.0 mi South 20.7 mph 28.8 mph N/A   Overcast
1:54 AM 55.9 °F - 46.0 °F 69% 29.92 in 10.0 mi South 15.0 mph 29.9 mph N/A   Overcast
2:54 AM 55.9 °F - 46.0 °F 69% 29.93 in 10.0 mi South 18.4 mph 25.3 mph N/A   Overcast
3:54 AM 55.9 °F - 46.9 °F 72% 29.93 in 10.0 mi South 16.1 mph 26.5 mph N/A   Overcast
4:54 AM 55.9 °F - 46.9 °F 72% 29.93 in 10.0 mi South 17.3 mph 23.0 mph N/A   Overcast
5:54 AM 55.9 °F - 46.9 °F 72% 29.92 in 10.0 mi South 13.8 mph 23.0 mph N/A   Overcast
6:54 AM 55.4 °F - 46.4 °F 72% 29.95 in 10.0 mi South 16.1 mph 23.0 mph N/A   Mostly Cloudy
7:54 AM 55.9 °F - 48.0 °F 75% 29.98 in 10.0 mi South 13.8 mph - N/A   Overcast
8:54 AM 55.9 °F - 48.0 °F 75% 29.98 in 10.0 mi SSW 11.5 mph - N/A   Overcast
9:54 AM 55.9 °F - 48.0 °F 75% 30.03 in 10.0 mi SW 6.9 mph - N/A   Overcast
10:32 AM 53.6 °F - 48.2 °F 82% 30.05 in 10.0 mi West 6.9 mph - 0.00 in Rain Light Rain
10:54 AM 54.0 °F - 48.9 °F 83% 30.05 in 10.0 mi WSW 5.8 mph - 0.00 in   Overcast
11:07 AM 53.6 °F - 48.2 °F 82% 30.04 in 10.0 mi West 4.6 mph - N/A   Overcast
11:54 AM 55.0 °F - 46.9 °F 74% 30.04 in 10.0 mi Calm Calm - N/A   Overcast
12:54 PM 55.0 °F - 48.0 °F 77% 30.03 in 10.0 mi NNE 4.6 mph - N/A   Overcast
1:54 PM 55.4 °F - 44.6 °F 67% 30.03 in 10.0 mi NNW 10.4 mph - N/A   Overcast
2:54 PM 51.1 °F - 44.1 °F 77% 30.05 in 10.0 mi North 11.5 mph - N/A   Mostly Cloudy
3:08 PM 50.0 °F - 42.8 °F 76% 30.05 in 10.0 mi NNE 12.7 mph - N/A   Mostly Cloudy
3:54 PM 48.9 °F - 43.0 °F 80% 30.08 in 10.0 mi North 9.2 mph - N/A   Mostly Cloudy
4:27 PM 46.4 °F 42.9 °F 41.0 °F 81% 30.08 in 10.0 mi North 6.9 mph - N/A   Scattered Clouds
4:54 PM 45.0 °F 43.5 °F 39.9 °F 82% 30.09 in 10.0 mi NE 3.5 mph - N/A   Scattered Clouds
5:54 PM 44.1 °F 40.1 °F 39.9 °F 85% 30.12 in 10.0 mi North 6.9 mph - N/A   Clear
6:54 PM 44.1 °F 41.5 °F 39.9 °F 85% 30.13 in 10.0 mi NNE 4.6 mph - N/A   Partly Cloudy
7:54 PM 44.1 °F - 39.9 °F 85% 30.13 in 10.0 mi Calm Calm - N/A   Mostly Cloudy
8:54 PM 42.8 °F 40.1 °F 39.2 °F 87% 30.13 in 10.0 mi NNW 4.6 mph - N/A   Overcast
9:14 PM 42.8 °F 40.1 °F 39.2 °F 87% 30.12 in 10.0 mi North 4.6 mph - N/A   Overcast
9:54 PM 43.0 °F 40.3 °F 39.0 °F 86% 30.13 in 10.0 mi NNW 4.6 mph - N/A   Mostly Cloudy
10:54 PM 44.1 °F - 39.9 °F 85% 30.12 in 10.0 mi Calm Calm - N/A   Overcast
11:54 PM 44.6 °F - 39.2 °F 81% 30.09 in 10.0 mi Calm Calm - N/A   Overcast